Change the Weather History Date:

Friday, May 17, 2013

  Actual Average Record
Temperature  
Mean Temperature 46 °F -  
Max Temperature 56 °F 58 °F 68 °F (1998)
Min Temperature 37 °F 48 °F 37 °F (2013)
Degree Days  
Heating Degree Days 18    
Moisture  
Dew Point 40 °F    
Average Humidity 74    
Maximum Humidity 93    
Minimum Humidity 40    
Precipitation  
Precipitation 0.00 in - - ()
Sea Level Pressure  
Sea Level Pressure 29.69 in    
Wind  
Wind Speed 7 mph ()    
Max Wind Speed 14 mph    
Max Gust Speed 23 mph    
Visibility 8.0 miles    
Events      
Averages and records for this station are not official NWS values.
T = Trace of Precipitation, MM = Missing Value Source: Averaged Metar Reports

Daily Weather History Graph

Daily Weather History Graph

Search for Another Location

Airport or City:

Trip Planner

Search our weather history database for the weather conditions in past years. The results will help you decide how hot, cold, wet, or windy it might be!

Date:

Astronomy

May. 17, 2013 Rise Set
Actual Time 5:31 AM BST 9:03 PM BST
Civil Twilight 4:52 AM BST 9:43 PM BST
Nautical Twilight 3:58 AM BST 10:37 PM BST
Astronomical Twilight 2:43 AM BST 11:54 PM BST
Moon 12:06 PM BST (5/17) 1:34 AM BST (5/17)
Length of Visible Light 16h 51m
Length of Day
15h 31m
Waxing Crescent, 43% of the Moon is Illuminated
May 17
Waxing Crescent
May 18
First Quarter
May 25
Full
May 31
Last Quarter
Jun 8
New

Hourly Weather History & Observations

Time (BST) Temp. Windchill Dew Point Humidity Pressure Visibility Wind Dir Wind Speed Gust Speed Precip Events Conditions
12:50 AM 40 °F - 37 °F 86% 29.57 in 11 mi ENE 5.8 mph - -   Haze
12:50 AM 41.0 °F 37.1 °F 37.4 °F 87% 29.53 in 6.2 mi ENE 5.8 mph - N/A   Partly Cloudy
1:50 AM 39.2 °F 34.2 °F 37.4 °F 93% 29.53 in 6.2 mi NE 6.9 mph - N/A   Partly Cloudy
2:50 AM 39.2 °F 34.2 °F 35.6 °F 87% 29.56 in 6.2 mi NE 6.9 mph - N/A   Partly Cloudy
3:50 AM 38 °F - 35 °F 87% 29.60 in 11 mi NE 8.1 mph - -   Haze
3:50 AM 37.4 °F 30.3 °F 35.6 °F 93% 29.56 in 6.2 mi NE 10.4 mph - N/A   Partly Cloudy
4:50 AM 37.4 °F 31.4 °F 35.6 °F 93% 29.56 in 6.2 mi NE 8.1 mph - N/A   Partly Cloudy
5:50 AM 39.2 °F 33.6 °F 35.6 °F 87% 29.59 in 6.2 mi ENE 8.1 mph - N/A   Partly Cloudy
6:50 AM 43 °F - 39 °F 82% 29.63 in 16 mi ENE 8.1 mph - -   Scattered Clouds
6:50 AM 42.8 °F 38.0 °F 39.2 °F 87% 29.59 in 6.2 mi ENE 8.1 mph - N/A   Partly Cloudy
7:50 AM 48.2 °F - 42.8 °F 82% 29.62 in 6.2 mi NE 4.6 mph - N/A   Scattered Clouds
8:50 AM 50.0 °F - 39.2 °F 66% 29.65 in 6.2 mi ENE 9.2 mph - N/A   Scattered Clouds
9:50 AM 53 °F - 40 °F 49% 29.68 in 16 mi ENE 9.2 mph - -   Scattered Clouds
9:50 AM 53.6 °F - 39.2 °F 58% 29.65 in 6.2 mi ENE 9.2 mph - N/A   Mostly Cloudy
10:50 AM 55.4 °F - 41.0 °F 58% 29.68 in 6.2 mi East 10.4 mph 23.0 mph N/A   Scattered Clouds
11:50 AM 55.4 °F - 37.4 °F 51% 29.68 in 6.2 mi ESE 13.8 mph - N/A   Scattered Clouds
12:50 PM 56 °F - 38 °F 40% 29.72 in 16 mi ESE 8.1 mph - -   Scattered Clouds
12:50 PM 55.4 °F - 39.2 °F 54% 29.71 in 6.2 mi ESE 8.1 mph 19.6 mph N/A   Partly Cloudy
1:50 PM 55.4 °F - 39.2 °F 54% 29.74 in 6.2 mi ENE 6.9 mph - N/A   Scattered Clouds
2:50 PM 53.6 °F - 42.8 °F 67% 29.74 in 6.2 mi NNE 6.9 mph - N/A   Scattered Clouds
3:50 PM 51 °F - 42 °F 64% 29.77 in 12 mi NE 10.4 mph - -   Mostly Cloudy
3:50 PM 51.8 °F - 42.8 °F 71% 29.77 in 6.2 mi NE 10.4 mph - N/A   Mostly Cloudy
4:50 PM 51.8 °F - 44.6 °F 76% 29.77 in 6.2 mi NNE 11.5 mph - N/A   Partly Cloudy
5:50 PM 53.6 °F - 41.0 °F 62% 29.77 in 6.2 mi NNE 6.9 mph - N/A   Partly Cloudy
6:50 PM 54 °F - 42 °F 53% 29.79 in 12 mi NE 9.2 mph - -   Scattered Clouds
6:50 PM 53.6 °F - 42.8 °F 67% 29.77 in 6.2 mi NE 9.2 mph - N/A   Partly Cloudy
7:50 PM 51.8 °F - 42.8 °F 71% 29.80 in 6.2 mi NE 11.5 mph - N/A   Scattered Clouds
8:50 PM 48.2 °F - 42.8 °F 82% 29.80 in 6.2 mi NE 6.9 mph - N/A   Scattered Clouds
9:50 PM 46 °F - 43 °F 85% 29.84 in 7 mi ENE 5.8 mph - -   Haze
9:50 PM 46.4 °F 43.5 °F 42.8 °F 87% 29.83 in - ENE 5.8 mph - N/A   Clear
10:50 PM 46.4 °F 42.9 °F 42.8 °F 87% 29.83 in - NE 6.9 mph - N/A   Clear
11:50 PM 44.6 °F 40.2 °F 41.0 °F 87% 29.83 in - ENE 8.1 mph - N/A   Clear